Weather History for Wahoo, NE

Change the Weather History Date:

Sunday, June 1, 2014

  Actual Average Record
Temperature  
Mean Temperature 76 °F -  
Max Temperature 90 °F 77 °F 90 °F (1991)
Min Temperature 63 °F 52 °F 41 °F (1982)
Cooling Degree Days 11    
Growing Degree Days 26 (Base 50)    
Moisture  
Dew Point 62 °F    
Average Humidity 69    
Maximum Humidity 88    
Minimum Humidity 37    
Precipitation  
Precipitation 1.07 in - - ()
Sea Level Pressure  
Sea Level Pressure 29.83 in    
Wind  
Wind Speed 12 mph (SSW)    
Max Wind Speed 34 mph    
Max Gust Speed 45 mph    
Visibility 9 miles    
Events Rain    
Averages and records for this station are not official NWS values.
T = Trace of Precipitation, MM = Missing Value Source: NWS Daily Summary

Daily Weather History Graph

Daily Weather History Graph

Search for Another Location

Airport:

Trip Planner

Search our weather history database for the weather conditions in past years. The results will help you decide how hot, cold, wet, or windy it might be!

Date:

Astronomy

Jun. 01, 2014 Rise Set
Actual Time 5:55 AM CDT 8:53 PM CDT
Civil Twilight 5:22 AM CDT 9:26 PM CDT
Nautical Twilight 4:40 AM CDT 10:08 PM CDT
Astronomical Twilight 3:52 AM CDT 10:57 PM CDT
Moon 9:29 AM CDT (6/1) 11:47 PM CDT (6/1)
Length of Visible Light 16h 03m
Length of Day
14h 57m
Waxing Crescent, 14% of the Moon is Illuminated
Jun 1
Waxing Crescent
Jun 5
First Quarter
Jun 12
Full
Jun 19
Last Quarter
Jun 27
New

Hourly Weather History & Observations

Time (CDT) Temp. Heat Index Dew Point Humidity Pressure Visibility Wind Dir Wind Speed Gust Speed Precip Events Conditions
12:15 AM 73.9 °F - 61.3 °F 65% 29.92 in 10.0 mi South 8.1 mph - N/A   Clear
12:35 AM 74.3 °F - 61.5 °F 64% 29.92 in 10.0 mi SSE 9.2 mph - N/A   Clear
12:55 AM 73.4 °F - 61.3 °F 66% 29.92 in 10.0 mi SSE 10.4 mph - N/A   Clear
1:15 AM 72.7 °F - 61.7 °F 68% 29.91 in 10.0 mi SSE 10.4 mph - N/A   Clear
1:35 AM 73.0 °F - 61.7 °F 67% 29.91 in 10.0 mi South 10.4 mph - N/A   Mostly Cloudy
1:55 AM 72.9 °F - 61.7 °F 68% 29.90 in 10.0 mi South 10.4 mph - N/A   Scattered Clouds
2:15 AM 72.9 °F - 61.7 °F 68% 29.90 in 10.0 mi South 11.5 mph - N/A   Clear
2:35 AM 72.5 °F - 61.7 °F 69% 29.90 in 10.0 mi South 11.5 mph - N/A   Clear
2:55 AM 71.8 °F - 61.9 °F 71% 29.89 in 10.0 mi South 8.1 mph - N/A   Clear
3:15 AM 70.7 °F - 61.9 °F 74% 29.89 in 10.0 mi South 6.9 mph - N/A   Clear
3:35 AM 70.9 °F - 62.1 °F 74% 29.89 in 10.0 mi South 6.9 mph - N/A   Scattered Clouds
3:55 AM 71.8 °F - 62.6 °F 73% 29.88 in 10.0 mi South 10.4 mph - N/A   Scattered Clouds
4:15 AM 72.7 °F - 62.8 °F 71% 29.88 in 10.0 mi South 11.5 mph 18.4 mph N/A   Scattered Clouds
4:35 AM 72.1 °F - 62.8 °F 72% 29.88 in 10.0 mi South 12.7 mph - N/A   Clear
4:55 AM 71.1 °F - 62.8 °F 75% 29.88 in 10.0 mi South 9.2 mph - N/A   Clear
5:15 AM 70.7 °F - 62.6 °F 75% 29.87 in 10.0 mi South 9.2 mph - N/A   Clear
5:35 AM 70.0 °F - 62.8 °F 78% 29.86 in 10.0 mi SSE 8.1 mph - N/A   Clear
5:55 AM 68.9 °F - 62.6 °F 80% 29.86 in 10.0 mi SSE 8.1 mph - N/A   Clear
6:15 AM 69.1 °F - 63.1 °F 81% 29.87 in 10.0 mi South 8.1 mph - N/A   Clear
6:35 AM 70.2 °F - 63.5 °F 79% 29.86 in 10.0 mi South 11.5 mph - N/A   Clear
6:55 AM 70.9 °F - 63.5 °F 77% 29.86 in 10.0 mi South 10.4 mph - N/A   Clear
7:15 AM 71.8 °F - 64.0 °F 77% 29.86 in 10.0 mi South 11.5 mph - N/A   Clear
7:35 AM 73.0 °F - 64.2 °F 74% 29.87 in 10.0 mi South 15.0 mph 20.7 mph N/A   Clear
7:55 AM 73.8 °F - 64.4 °F 72% 29.86 in 10.0 mi SSW 15.0 mph 21.9 mph N/A   Scattered Clouds
8:15 AM 74.5 °F - 64.4 °F 71% 29.86 in 10.0 mi South 16.1 mph 21.9 mph N/A   Clear
8:35 AM 75.7 °F - 64.6 °F 68% 29.85 in 10.0 mi South 16.1 mph 23.0 mph N/A   Clear
9:15 AM 79.0 °F - 64.4 °F 61% 29.85 in 10.0 mi South 18.4 mph 23.0 mph N/A   Clear
9:35 AM 79.3 °F - 64.6 °F 60% 29.85 in 10.0 mi South 17.3 mph 20.7 mph N/A   Clear
9:55 AM 80.8 °F 82.4 °F 64.2 °F 57% 29.85 in 10.0 mi South 16.1 mph 21.9 mph N/A   Clear
10:15 AM 81.0 °F 82.6 °F 64.2 °F 57% 29.84 in 10.0 mi South 16.1 mph 20.7 mph N/A   Scattered Clouds
10:35 AM 80.6 °F 82.2 °F 63.9 °F 57% 29.84 in 10.0 mi South 13.8 mph 23.0 mph N/A   Scattered Clouds
10:55 AM 82.4 °F 83.7 °F 63.7 °F 53% 29.84 in 10.0 mi South 19.6 mph 24.2 mph N/A   Scattered Clouds
11:15 AM 82.8 °F 83.8 °F 63.1 °F 51% 29.84 in 10.0 mi SSW 18.4 mph - N/A   Scattered Clouds
11:35 AM 84.2 °F 85.2 °F 63.1 °F 49% 29.83 in 10.0 mi SSW 17.3 mph - N/A   Scattered Clouds
11:55 AM 85.8 °F 86.6 °F 63.1 °F 46% 29.83 in 10.0 mi South 16.1 mph 24.2 mph N/A   Clear
12:15 PM 86.5 °F 86.5 °F 61.2 °F 42% 29.83 in 10.0 mi SSW 21.9 mph 26.5 mph N/A   Scattered Clouds
12:35 PM 87.4 °F 87.4 °F 61.2 °F 41% 29.82 in 10.0 mi SSW 17.3 mph 25.3 mph N/A   Scattered Clouds
1:15 PM 87.4 °F 87.4 °F 61.0 °F 41% 29.80 in 10.0 mi SSW 19.6 mph 25.3 mph N/A   Mostly Cloudy
1:35 PM 88.5 °F 88.3 °F 61.0 °F 39% 29.79 in 10.0 mi South 16.1 mph 32.2 mph N/A   Scattered Clouds
1:55 PM 89.2 °F 88.7 °F 59.9 °F 37% 29.78 in 10.0 mi South 18.4 mph 27.6 mph N/A   Mostly Cloudy
2:15 PM 86.4 °F 85.9 °F 59.2 °F 40% 29.77 in 10.0 mi South 17.3 mph 27.6 mph N/A   Mostly Cloudy
2:55 PM 83.8 °F 84.1 °F 61.0 °F 46% 29.75 in 10.0 mi South 16.1 mph - N/A   Scattered Clouds
3:15 PM 85.1 °F 85.7 °F 62.4 °F 46% 29.72 in 10.0 mi South 12.7 mph - N/A   Scattered Clouds
3:35 PM 87.1 °F 87.0 °F 61.0 °F 41% 29.72 in 10.0 mi SSW 13.8 mph 23.0 mph N/A   Clear
3:55 PM 87.4 °F 87.4 °F 61.0 °F 41% 29.73 in 10.0 mi SSW 15.0 mph 20.7 mph N/A   Mostly Cloudy
4:15 PM 85.5 °F 85.7 °F 61.0 °F 44% 29.74 in 10.0 mi WSW 20.7 mph 27.6 mph N/A   Mostly Cloudy
4:35 PM 65.5 °F - 60.3 °F 83% 29.80 in 4.0 mi NW 34.5 mph 44.9 mph 0.03 in Rain Rain
4:55 PM 64.6 °F - 60.8 °F 88% 29.80 in 2.0 mi NNW 24.2 mph 33.4 mph 0.17 in Rain Light Rain
5:15 PM 64.9 °F - 60.8 °F 86% 29.78 in 4.0 mi North 16.1 mph - 0.17 in Rain Heavy Rain
5:35 PM 65.3 °F - 60.8 °F 85% 29.84 in 2.5 mi NW 8.1 mph - 0.36 in Rain Heavy Rain
5:55 PM 66.2 °F - 60.8 °F 83% 29.83 in 4.0 mi WNW 10.4 mph 20.7 mph 0.44 in Rain Rain
6:15 PM 65.5 °F - 60.3 °F 83% 29.83 in 4.0 mi West 11.5 mph - 0.09 in Rain Heavy Rain
6:35 PM 65.5 °F - 60.3 °F 83% 29.83 in 10.0 mi South 9.2 mph - 0.14 in Rain Rain
6:55 PM 64.9 °F - 60.4 °F 85% 29.78 in 10.0 mi SW 5.8 mph - 0.16 in Rain Light Rain
7:15 PM 65.3 °F - 61.0 °F 86% 29.79 in 10.0 mi SW 6.9 mph - 0.02 in Rain Rain
7:35 PM 65.1 °F - 60.8 °F 86% 29.78 in 7.0 mi WSW 11.5 mph - 0.06 in Rain Rain
7:55 PM 64.9 °F - 60.6 °F 86% 29.82 in 10.0 mi SW 12.7 mph - 0.11 in Rain Rain
8:15 PM 65.5 °F - 59.9 °F 82% 29.82 in 7.0 mi SSW 3.5 mph - 0.06 in Rain Rain
8:35 PM 64.4 °F - 59.9 °F 85% 29.78 in 5.0 mi ESE 11.5 mph - 0.14 in Rain Rain
8:55 PM 64.0 °F - 60.1 °F 87% 29.76 in 10.0 mi ESE 19.6 mph - 0.18 in Rain Rain
9:15 PM 64.4 °F - 59.2 °F 83% 29.73 in 10.0 mi East 16.1 mph 28.8 mph 0.01 in Rain Light Rain
9:35 PM 65.1 °F - 58.6 °F 79% 29.80 in 10.0 mi SSW 3.5 mph - 0.01 in   Scattered Clouds
9:55 PM 64.8 °F - 59.2 °F 82% 29.80 in 10.0 mi SW 5.8 mph - 0.01 in   Scattered Clouds
10:15 PM 64.8 °F - 59.4 °F 83% 29.82 in 10.0 mi WSW 4.6 mph - N/A   Clear
10:35 PM 64.4 °F - 59.5 °F 84% 29.83 in 10.0 mi WSW 3.5 mph - N/A   Clear
10:55 PM 64.6 °F - 59.5 °F 84% 29.83 in 10.0 mi South 3.5 mph - N/A   Clear
11:15 PM 63.5 °F - 59.7 °F 87% 29.83 in 10.0 mi SSW 3.5 mph - N/A   Clear
11:35 PM 63.7 °F - 59.5 °F 86% 29.83 in 10.0 mi SW 5.8 mph - N/A   Clear
11:55 PM 64.4 °F - 59.4 °F 84% 29.84 in 10.0 mi WSW 5.8 mph - N/A   Clear